Home   Weather   Al Khor   Past weeks

Flag for Qatar Past Weather in Al Khor, Qatar — Yesterday and Last 2 Weeks

Now
66 °F

Sunny.


Feels Like: 66 °F
Forecast: 64 / 73 °F
Wind: No wind

Location: Doha International Airport

Current Time: Jan 19, 2017 at 9:44:35 am

Latest Report: Jan 19, 2017 at 8:00 am


Visibility: 10 mi

Pressure: 30.15 "Hg

Humidity: 68%

Dew Point: 55 °F

Location of Al KhorLocation

Past Weather in Al Khor — Graph

°F

Al Khor Temperature Yesterday

Maximum temperature yesterday: 70 °F (at 11:00 am)
Minimum temperature yesterday: 59 °F (at 5:00 am)
Average temperature yesterday: 65 °F

High & Low Weather Summary for the Past Weeks

 TemperatureHumidityPressure
High81 °F (Jan 11, 3:00 pm)94% (Jan 10, 2:00 am)30.18 "Hg (Jan 10, 2:00 am)
Low57 °F (Jan 16, 5:00 am)24% (Jan 8, 11:00 am)29.89 "Hg (Jan 13, 1:00 pm)
Average67 °F65%30.05 "Hg
* Reported Jan 4 8:00 am — Jan 19 8:00 am, Al Khor, Weather by CustomWeather, © 2017

Note: Actual official high and low records may vary slightly from our data, if they occured in-between our weather recording intervals... More about our weather records

Advertising

Al Khor Weather History for the Previous 24 Hours

Scroll right to see more
 ConditionsComfort  
Time TempWeatherWind HumidityBarometerVisibility
8:00 am
Thu, Jan 19
66 °FSunny.No wind68%30.15 "Hg10 mi
7:00 am61 °FSunny.2 mph77%30.12 "Hg10 mi
6:00 am59 °FClear.2 mph77%30.09 "Hg10 mi
5:00 am61 °FClear.1 mph77%30.09 "Hg10 mi
4:00 am63 °FClear.2 mph73%30.09 "Hg10 mi
3:00 am63 °FPassing clouds.2 mph73%30.09 "HgN/A
2:00 am63 °FClear.2 mph73%30.09 "Hg10 mi
1:00 am63 °FClear.1 mph73%30.09 "Hg10 mi
12:00 am64 °FClear.2 mph73%30.09 "Hg10 mi
11:00 pm
Wed, Jan 18
63 °FClear.No wind77%30.12 "Hg10 mi
10:00 pm63 °FClear.2 mph77%30.12 "Hg10 mi
9:00 pm63 °FClear.1 mph77%30.12 "Hg10 mi
8:00 pm64 °FClear.No wind73%30.12 "Hg10 mi
7:00 pm66 °FClear.3 mph68%30.12 "Hg10 mi
6:00 pm66 °FClear.5 mph68%30.09 "Hg10 mi
5:00 pm68 °FSunny.7 mph64%30.09 "Hg10 mi
4:00 pm68 °FSunny.9 mph64%30.09 "Hg10 mi
3:00 pm70 °FSunny.9 mph57%30.09 "Hg10 mi
2:00 pm70 °FSunny.8 mph57%30.09 "Hg10 mi
1:00 pm70 °FPassing clouds.10 mph53%30.09 "HgN/A
12:00 pm70 °FPassing clouds.12 mph53%30.09 "HgN/A
11:00 am70 °FPassing clouds.9 mph57%30.15 "HgN/A
10:00 am68 °FPassing clouds.10 mph56%30.18 "HgN/A
9:00 am66 °FPassing clouds.9 mph60%30.18 "HgN/A
Weather by CustomWeather, © 2017

See weather overviewHow to use our weather pages